Simultaneous Nadir Overpasses (SNOs) Predictions

Prediction of SNOs between AQUA and NOAA-19 Satellite Orbit:

Table of predicted SNOs for the next 14.0 days since TLE Epoch: 8/11/2017
Index Date (AQUA) Time (AQUA) Lat,Lon (AQUA) SZA (AQUA ) Date (NOAA-19) Time (NOAA-19) Lat,Lon (NOAA-19) SZA (NOAA-19 ) Distance(km) Time Diff (sec)
1 08/12/2017 18:07:49 80.94,-132.29 68.55 08/12/2017 18:07:03 80.95,-132.19 68.56 1.83 46
2 08/12/2017 18:57:16 -80.95, 35.22 111.43 08/12/2017 18:58:01 -80.95, 35.32 111.46 1.99 45
3 08/14/2017 23:41:33 -80.95, -35.74 110.79 08/14/2017 23:40:49 -80.95, -35.86 110.75 2.10 44
4 08/15/2017 00:31:00 80.96, 131.70 69.26 08/15/2017 00:31:50 80.95, 131.85 69.22 2.82 50
5 08/17/2017 05:15:17 80.95, 60.73 69.92 08/17/2017 05:14:37 80.95, 60.79 69.93 1.26 40
6 08/17/2017 06:04:44 -80.96,-131.76 110.05 08/17/2017 06:05:36 -80.95,-131.62 110.10 3.00 52
7 08/19/2017 10:49:01 -80.96, 157.24 109.37 08/19/2017 10:48:24 -80.94, 157.16 109.35 2.00 37
8 08/19/2017 11:38:27 80.95, -34.96 70.62 08/19/2017 11:39:23 80.95, -34.86 70.59 1.87 56
9 08/21/2017 16:22:44 80.94,-105.98 71.32 08/21/2017 16:22:10 80.95,-105.97 71.34 0.54 34
10 08/21/2017 17:12:11 -80.95, 61.52 108.65 08/21/2017 17:13:11 -80.95, 61.35 108.66 3.10 60
11 08/23/2017 21:56:28 -80.95, -9.52 107.93 08/23/2017 21:55:58 -80.94, -9.55 107.91 0.75 30




NCC Satellite Simultaneous Nadir Overpasses (SNOs) Prediction Service
